sat.trackr.live / text

‹ back to catalog

STARLINK-31632

NORAD 59326 · 2024-057G

PAYLOAD ACTIVE UNKNOWN

§ Identity

Operator
Country
US
Launch date
2024-03-25
Launch site
AFETR
Launch vehicle
Mass (kg)
RCS (m²)

Purposes: comms

External: N2YO · Heavens-Above · Gunter

§ Orbital elements

Epoch: 2026-05-25T05:19:17.105664Z

Period
94.27 min
Inclination
43.0017°
Eccentricity
0.0001110
Mean motion
15.27576258 rev/d
Perigee alt
482.3 km
Apogee alt
483.8 km
Semi-major
6,861.2 km
B*
3.0940e-5
RAAN
126.1066°
Arg perigee
255.5509°
Mean anomaly
104.5220°
Rev number
12,141

§ Raw data

STARLINK-316321 59326U 24057G   26145.22172576  .00000589  00000+0  30940-4 0  99942 59326  43.0017 126.1066 0001110 255.5509 104.5220 15.27576258121419

JSON: /api/v1/satellites/59326 · /tle

For live sub-satellite position, see the globe view (requires WebGL).

§ Visibility from observer

Set your observer location to see the next 7 days of passes ≥ 10°. The values pass through the URL so the page stays shareable.

No JS? Fill the form by hand. The geolocation button needs JavaScript.